Overview Statistics Trail Chart Weather Telemetry Raw packets
 

This is the latest recevied weather packets stored in our database for station/object N4ASP-13. If no packets are shown the sender has not sent any weather packets the latest 10 day(s).

<< 5 6 7 8 9 10 11 >>
Time Temp. Humidity Pressure Rain* Wind** Luminosity Snow
1788629368 27.22° C 68% 1016.1 hPa 0 mm - 142 W/m² -
1788629307 27.22° C 68% 1016.1 hPa 0 mm - 139 W/m² -
1788629247 27.22° C 68% 1016.2 hPa 0 mm - 137 W/m² -
1788629188 27.22° C 69% 1016.1 hPa 0 mm - 141 W/m² -
1788629128 27.22° C 68% 1016.1 hPa 0 mm - 148 W/m² -
1788629068 27.78° C 68% 1015.9 hPa 0 mm - 156 W/m² -
1788629008 27.78° C 68% 1015.9 hPa 0 mm - 167 W/m² -
1788628947 27.78° C 67% 1016 hPa 0 mm - 169 W/m² -
1788628887 28.33° C 69% 1015.9 hPa 0 mm - 185 W/m² -
1788628829 28.33° C 69% 1016 hPa 0 mm - 185 W/m² -
1788628767 28.89° C 70% 1016 hPa 0 mm - 190 W/m² -
1788628708 28.89° C 69% 1015.9 hPa 0 mm - 190 W/m² -
1788628649 29.44° C 67% 1016 hPa 0 mm - 218 W/m² -
1788628587 29.44° C 67% 1016 hPa 0 mm - 237 W/m² -
1788628529 29.44° C 66% 1015.9 hPa 0 mm - 258 W/m² -
1788628468 29.44° C 66% 1015.9 hPa 0 mm - 281 W/m² -
1788628400 29.44° C 66% 1015.9 hPa 0 mm - 306 W/m² -
1788628341 30° C 66% 1015.8 hPa 0 mm - 360 W/m² -
1788628280 30° C 65% 1015.8 hPa 0 mm - 420 W/m² -
1788628220 30° C 68% 1015.9 hPa 0 mm - 459 W/m² -
1788628159 30° C 69% 1015.8 hPa 0 mm - 485 W/m² -
1788628101 30° C 68% 1015.8 hPa 0 mm - 503 W/m² -
1788628039 30° C 67% 1015.8 hPa 0 mm - 527 W/m² -
1788627981 30° C 68% 1015.8 hPa 0 mm - 531 W/m² -
1788627919 30° C 67% 1015.7 hPa 0 mm - 536 W/m² -

* Rain latest hour (hover to see other rain measurements)
** Current wind speed in m/s (hover to see current wind gust speed)